EW4479 Weather Reports


time (UTC)temp
F
wind
direction
speed
knots
gust
knots
rain 1hr
in
rain 24hr
in
rain mn
in
humidity
%
barometer
mb
20220925052331 45 29 0.0 0.0 0.00 0.04 0.01 99 1013.0
20220925051330 45 29 0.0 0.0 0.00 0.04 0.01 99 1013.0
20220925050828 44 29 0.0 0.0 0.00 0.04 0.01 99 1013.1
20220925045333 45 29 0.0 0.0 0.00 0.04 0.01 99 1012.9
20220925044829 45 29 0.0 0.0 0.00 0.04 0.01 99 1012.9
20220925044329 45 29 0.0 0.0 0.00 0.04 0.01 99 1012.9
20220925042830 45 295 0.0 0.0 0.00 0.04 0.01 99 1012.8
20220925041830 45 295 0.0 0.0 0.00 0.04 0.01 99 1012.9
20220925041330 45 295 0.0 0.0 0.00 0.04 0.01 99 1012.9
20220925040329 45 295 0.0 0.0 0.00 0.04 0.01 99 1012.8
20220925035330 44 295 0.0 0.0 0.00 0.04 0.01 99 1013.0
20220925034829 44 295 0.0 0.0 0.00 0.04 0.01 99 1013.0
20220925033829 44 295 0.0 0.0 0.00 0.04 0.01 99 1013.2
20220925033329 44 295 0.0 0.0 0.00 0.04 0.01 99 1013.2
20220925031828 44 295 0.0 0.0 0.00 0.04 0.01 99 1013.3
20220925031330 44 295 0.0 0.0 0.00 0.04 0.01 99 1013.3
20220925030829 44 295 0.0 0.0 0.00 0.04 0.01 99 1013.4
20220925025829 44 295 0.0 0.9 0.00 0.04 0.01 99 1013.4
20220925024323 44 29 0.0 0.0 0.00 0.04 0.01 99 1013.4
20220925023822 44 29 0.0 0.0 0.00 0.04 0.01 99 1013.5
20220925022316 44 29 0.0 0.0 0.00 0.04 0.01 99 1013.4
20220925020810 45 29 0.0 0.0 0.00 0.04 0.01 99 1013.4
20220925020306 45 29 0.0 0.0 0.00 0.04 0.01 99 1013.3
20220925015802 45 29 0.0 0.0 0.00 0.04 0.01 99 1013.3
20220925014303 45 29 0.0 0.0 0.00 0.04 0.01 99 1013.4
20220925013801 45 29 0.0 0.0 0.00 0.04 0.01 99 1013.4
20220925012802 46 29 0.0 0.0 0.00 0.04 0.01 99 1013.5
20220925011802 46 29 0.0 0.0 0.01 0.04 0.01 99 1013.4
20220925011303 46 29 0.0 0.0 0.01 0.04 0.01 99 1013.5
20220925010302 47 29 0.0 0.0 0.01 0.04 0.01 99 1013.6
20220925005802 47 29 0.0 0.0 0.01 0.04 0.01 99 1013.7
20220925004802 47 29 0.0 0.0 0.01 0.04 0.01 99 1013.8
20220925003802 48 29 0.0 0.0 0.01 0.04 0.01 99 1013.8
20220925002306 48 29 0.0 0.0 0.00 0.03 0.00 99 1013.9
20220925001802 48 29 0.0 0.0 0.00 0.03 0.00 99 1014.0
20220925000802 48 295 0.0 0.9 0.00 0.03 0.00 99 1014.1
20220925000303 48 295 0.0 0.9 0.00 0.03 0.00 99 1014.1
20220924235305 48 295 0.0 0.0 0.00 0.03 0.00 99 1014.1
20220924234802 48 295 0.0 0.0 0.00 0.03 0.00 99 1014.1
20220924233304 48 295 0.0 0.0 0.00 0.03 0.00 99 1013.9
20220924231303 48 295 0.0 0.0 0.00 0.03 0.00 99 1013.8
20220924230804 49 295 0.0 0.0 0.00 0.03 0.00 99 1013.9
20220924225804 49 295 0.0 0.0 0.00 0.03 0.00 98 1013.9
20220924225305 49 295 0.0 0.0 0.00 0.03 0.00 98 1014.0
20220924224303 49 295 0.0 0.0 0.00 0.03 0.00 98 1014.1
20220924223802 50 295 0.0 0.0 0.00 0.03 0.00 98 1014.1
20220924223303 50 295 0.0 0.0 0.00 0.03 0.00 98 1014.0
20220924222305 50 295 0.0 0.0 0.00 0.03 0.00 98 1014.1
20220924221802 51 295 0.0 0.0 0.00 0.03 0.00 98 1014.1
20220924220302 51 295 0.0 0.0 0.00 0.03 0.00 98 1014.3
20220924215801 51 295 0.0 0.0 0.00 0.03 0.03 98 1014.4
20220924213801 52 295 0.0 0.0 0.00 0.03 0.03 98 1014.4
20220924212305 53 295 0.0 0.0 0.00 0.03 0.03 98 1014.3
20220924211802 52 295 0.0 0.0 0.00 0.03 0.03 98 1014.2
20220924210315 53 295 0.0 0.0 0.00 0.03 0.03 98 1014.2
20220924205802 53 295 0.0 0.0 0.00 0.03 0.03 98 1014.2
20220924204802 53 295 0.0 0.0 0.00 0.03 0.03 98 1014.2
20220924203802 53 295 0.0 0.0 0.00 0.03 0.03 98 1014.2
20220924202801 53 295 0.0 0.0 0.00 0.03 0.03 98 1014.3
20220924202301 53 295 0.0 0.0 0.00 0.03 0.03 98 1014.3
20220924201759 53 295 0.0 0.0 0.00 0.03 0.03 98 1014.3
20220924201257 53 295 0.0 0.0 0.00 0.03 0.03 98 1014.2
20220924200752 53 295 0.0 1.7 0.00 0.03 0.03 98 1014.3
20220924195243 53 98 0.0 0.9 0.00 0.03 0.03 98 1014.4
20220924193736 53 98 0.0 0.0 0.00 0.03 0.03 98 1014.3
20220924193230 53 98 0.0 0.0 0.00 0.03 0.03 98 1014.4
20220924192229 54 98 0.0 0.0 0.01 0.03 0.03 98 1014.4
20220924191730 54 98 0.0 0.0 0.01 0.03 0.03 98 1014.3
20220924190729 54 126 0.0 0.9 0.01 0.03 0.03 97 1014.3
20220924190228 54 126 0.0 0.9 0.01 0.03 0.03 97 1014.3
20220924185228 54 98 0.0 0.0 0.01 0.03 0.03 97 1014.4
20220924184230 54 98 0.0 0.0 0.01 0.03 0.03 97 1014.3
20220924182228 55 98 0.0 0.0 0.00 0.02 0.02 97 1014.2
20220924181229 55 98 0.0 0.9 0.00 0.02 0.02 97 1014.2
20220924180730 54 126 0.0 0.9 0.00 0.02 0.02 97 1014.2
20220924175232 55 80 0.0 0.9 0.00 0.02 0.02 97 1014.1
20220924174231 55 5 0.0 0.0 0.00 0.02 0.02 97 1014.1
20220924173234 55 5 0.0 0.0 0.00 0.02 0.02 97 1013.9
20220924172729 55 5 0.0 0.0 0.00 0.02 0.02 97 1014.0
20220924172229 55 5 0.0 0.0 0.00 0.02 0.02 97 1014.1
20220924171226 55 5 0.0 0.0 0.00 0.02 0.02 96 1014.1
20220924170722 55 5 0.0 0.0 0.00 0.02 0.02 96 1014.0
20220924170220 55 5 0.0 0.0 0.00 0.02 0.02 96 1014.1
20220924165716 55 5 0.0 0.0 0.00 0.02 0.02 96 1014.1
20220924164710 56 5 0.0 0.0 0.00 0.02 0.02 95 1014.0
20220924164210 56 5 0.0 0.0 0.00 0.02 0.02 95 1014.0
20220924162708 56 5 0.0 0.0 0.00 0.02 0.02 95 1013.9
20220924160705 56 5 0.0 0.0 0.00 0.02 0.02 94 1014.1
20220924160201 56 5 0.0 0.0 0.00 0.02 0.02 94 1014.1
20220924155655 56 5 0.0 0.0 0.00 0.02 0.02 94 1013.9
20220924154653 56 5 0.0 0.0 0.01 0.02 0.02 94 1014.2
20220924153142 56 5 0.0 0.0 0.01 0.02 0.02 94 1014.0
20220924152637 56 5 0.0 0.0 0.01 0.02 0.02 94 1014.1
20220924152136 56 5 0.0 0.0 0.01 0.02 0.02 93 1014.1
20220924151630 56 5 0.0 0.0 0.01 0.02 0.02 93 1014.2
20220924151129 56 5 0.0 0.0 0.01 0.02 0.02 93 1014.2
20220924150128 57 5 0.0 0.9 0.01 0.02 0.02 92 1014.2
20220924145123 57 320 0.0 0.9 0.01 0.02 0.02 90 1014.2
20220924143615 57 5 0.0 0.9 0.00 0.02 0.02 91 1014.2
20220924143115 57 5 0.0 1.7 0.00 0.02 0.02 90 1014.1
20220924142616 57 5 0.9 1.7 0.00 0.02 0.02 88 1014.2
20220924142108 58 355 0.0 0.9 0.00 0.02 0.02 87 1014.3
20220924141605 58 355 0.0 1.7 0.00 0.02 0.02 87 1014.2
20220924140604 58 307 0.0 1.7 0.00 0.02 0.02 87 1014.4
20220924140115 58 307 0.0 1.7 0.00 0.02 0.02 84 1014.3
20220924135601 58 307 0.0 1.7 0.00 0.02 0.02 84 1014.3
20220924134600 58 337 0.0 2.6 0.00 0.02 0.02 84 1014.2
20220924134101 58 306 0.9 2.6 0.00 0.02 0.02 83 1014.2
20220924133602 58 272 0.9 1.7 0.00 0.02 0.02 84 1014.4
20220924133101 58 270 0.9 1.7 0.00 0.02 0.02 84 1014.3
20220924132600 58 310 0.9 1.7 0.00 0.02 0.02 84 1014.5
20220924131102 58 273 0.0 3.5 0.00 0.02 0.02 85 1014.4
20220924130100 58 297 0.9 2.6 0.00 0.02 0.02 86 1014.5
20220924125100 58 328 1.7 5.2 0.00 0.02 0.02 87 1014.5
20220924124601 58 319 0.9 3.5 0.00 0.02 0.02 88 1014.5
20220924123602 57 281 0.0 2.6 0.00 0.02 0.02 89 1014.6
20220924122102 57 285 0.9 2.6 0.00 0.02 0.02 88 1014.6
20220924121601 57 303 0.9 2.6 0.00 0.02 0.02 89 1014.6
20220924115601 57 275 0.0 2.6 0.00 0.02 0.02 89 1014.9
20220924114601 57 274 0.0 2.6 0.00 0.02 0.02 89 1015.0
20220924113600 57 279 0.0 2.6 0.00 0.02 0.02 91 1015.0
20220924112600 57 315 0.0 2.6 0.00 0.02 0.02 90 1015.0
20220924112101 57 323 0.9 3.5 0.00 0.02 0.02 90 1015.1
20220924110602 57 321 0.9 3.5 0.00 0.02 0.02 91 1014.9
20220924110104 57 265 0.9 3.5 0.00 0.02 0.02 91 1015.0
20220924104602 57 298 0.0 3.5 0.00 0.02 0.02 91 1014.9
20220924104058 57 292 0.0 1.7 0.00 0.02 0.02 91 1015.0
20220924103556 57 296 0.0 5.2 0.00 0.02 0.02 91 1015.0
20220924103056 57 290 0.9 5.2 0.00 0.02 0.02 91 1014.9
20220924102553 57 298 0.9 4.3 0.00 0.02 0.02 91 1014.8
20220924101551 57 304 0.9 3.5 0.00 0.02 0.02 91 1014.9
20220924101045 57 324 0.9 6.1 0.00 0.02 0.02 91 1015.0
20220924100541 56 261 0.9 6.1 0.00 0.02 0.02 91 1015.0
20220924100040 56 284 0.9 6.1 0.00 0.02 0.02 91 1014.9
20220924095535 56 0 2.6 6.1 0.00 0.02 0.02 91 1015.0
20220924095033 56 295 0.0 5.2 0.00 0.02 0.02 91 1015.0
20220924094029 56 299 0.0 3.5 0.00 0.02 0.02 91 1014.9
20220924093529 56 298 0.0 4.3 0.00 0.02 0.02 91 1014.9
20220924093044 56 267 0.9 4.3 0.00 0.02 0.02 90 1014.9
20220924092028 56 238 0.9 5.2 0.00 0.02 0.02 90 1014.9
20220924091528 56 238 0.0 3.5 0.00 0.02 0.02 90 1014.8
20220924090531 57 153 0.9 5.2 0.00 0.02 0.02 89 1014.6
20220924084529 57 231 0.9 3.5 0.00 0.02 0.02 88 1014.5
20220924082043 56 290 0.0 0.0 0.00 0.02 0.02 95 1014.5
20220924081044 55 290 0.0 0.0 0.02 0.02 0.02 95 1014.4
20220924080530 54 290 0.0 0.0 0.02 0.02 0.02 95 1014.4
20220924075031 54 163 0.0 0.0 0.02 0.02 0.02 96 1014.3
20220924074530 53 163 0.0 0.0 0.02 0.02 0.02 96 1014.3
20220924074046 53 163 0.0 0.0 0.02 0.02 0.02 95 1014.2
20220924071029 51 176 0.0 0.0 0.00 0.00 0.00 95 1014.2
20220924070045 51 176 0.0 0.0 0.00 0.00 0.00 95 1014.0
20220924065530 51 176 0.0 0.0 0.00 0.00 0.00 95 1013.9
20220924064524 51 176 0.0 0.0 0.00 0.00 0.00 95 1013.9
20220924064021 51 176 0.0 0.0 0.00 0.00 0.00 95 1013.8
20220924063017 50 176 0.0 0.0 0.00 0.00 0.00 95 1013.7
20220924062009 49 176 0.0 0.0 0.00 0.00 0.00 96 1013.7
20220924061517 49 176 0.0 0.0 0.00 0.00 0.00 96 1013.7
20220924061005 49 176 0.0 0.0 0.00 0.00 0.00 96 1013.8
20220924060502 49 176 0.0 0.0 0.00 0.00 0.00 96 1013.8
20220924055502 48 176 0.0 0.0 0.00 0.00 0.00 96 1013.7
20220924055002 48 176 0.0 0.0 0.00 0.00 0.00 96 1013.8